Date,TemperatureHighF,TemperatureAvgF,TemperatureLowF,DewpointHighF,DewpointAvgF,DewpointLowF,HumidityHigh,HumidityAvg,HumidityLow,PressureMaxIn,PressureMinIn,WindSpeedMaxMPH,WindSpeedAvgMPH,GustSpeedMaxMPH,PrecipitationSumIn
2013-1-1,20.2,13.7,9.0,16.0,8.3,3.3,87,79,74,29.90,29.76,25,15,25,0.00
2013-1-2,17.5,8.4,-5.7,13.5,4.5,-9.3,90,84,78,30.18,29.85,26,10,26,0.00
2013-1-3,19.0,1.5,-12.6,17.3,-2.9,-16.2,94,82,62,30.20,29.97,10,2,10,0.00
2013-1-4,28.3,25.8,19.0,23.7,21.9,17.3,93,85,79,29.97,29.79,34,16,34,0.01
2013-1-5,29.4,24.0,12.2,24.2,17.8,9.4,91,78,60,30.20,29.79,22,8,22,0.00
2013-1-6,32.4,26.7,14.2,29.8,23.6,11.5,96,88,80,30.15,29.90,20,8,20,0.00
2013-1-7,32.4,19.2,7.8,28.7,15.4,5.3,92,85,71,30.33,29.92,16,6,16,0.00
2013-1-8,35.7,26.6,8.7,22.1,18.2,6.6,94,72,54,30.35,30.24,29,10,29,0.00
2013-1-9,43.5,30.0,15.6,33.5,23.3,13.5,94,77,57,30.35,29.93,34,7,34,0.18
2013-1-10,36.9,32.4,24.2,31.1,24.1,20.3,91,72,60,30.52,30.01,36,10,36,0.00
2013-1-11,35.5,28.4,19.4,32.0,23.5,16.6,96,83,57,30.51,30.11,12,3,16,0.00
2013-1-12,46.4,35.6,30.4,42.0,34.0,29.4,98,94,83,30.14,30.06,7,1,7,0.01
2013-1-13,49.4,38.5,31.7,44.1,37.1,30.9,99,95,80,30.10,29.91,9,2,9,0.01
2013-1-14,49.7,39.1,29.4,49.0,34.3,22.1,99,84,65,30.23,29.78,31,10,31,0.01
2013-1-15,29.4,27.2,24.4,23.3,21.5,19.5,85,79,71,30.29,30.18,12,3,12,0.00
2013-1-16,30.0,28.2,25.9,28.5,26.5,20.9,96,93,81,30.20,29.76,25,8,25,0.00
2013-1-17,30.8,23.2,9.6,27.9,16.7,2.2,93,76,56,30.09,29.77,25,11,25,0.00
2013-1-18,8.9,8.4,7.6,1.7,0.8,0.2,72,71,70,30.08,30.06,7,3,9,0.00
2013-1-23,2.8,-2.3,-7.4,-12.5,-14.4,-17.2,75,57,42,30.13,30.07,21,7,21,0.00
2013-1-24,7.5,-1.7,-11.7,-6.7,-11.5,-16.0,83,64,40,30.32,30.13,30,10,30,0.00
2013-1-25,11.1,3.2,-4.6,2.7,-6.0,-10.1,84,66,43,30.37,30.08,17,5,17,0.00
2013-1-26,11.7,6.2,2.2,2.4,-0.8,-5.1,89,74,50,30.28,30.05,16,6,16,0.00
2013-1-27,17.9,9.2,4.7,3.0,1.1,-1.7,85,70,48,30.49,30.28,15,6,15,0.00
2013-1-28,21.1,14.9,5.3,18.1,11.0,-0.7,92,84,68,30.47,29.99,8,2,8,0.00
2013-1-29,31.8,26.2,19.7,30.8,24.5,17.8,97,93,89,30.15,30.01,9,2,9,0.00
2013-1-30,57.4,45.7,31.6,53.2,44.0,30.8,99,94,83,30.01,29.26,20,5,20,2.90
2013-1-31,50.7,34.6,22.1,49.8,27.9,9.2,98,77,56,29.46,28.79,39,17,39,9.60
2013-2-1,22.1,18.1,16.7,15.3,14.0,10.9,91,84,62,29.58,29.46,29,14,29,0.00
2013-3-18,32.3,30.9,27.5,6.3,4.4,1.6,35,32,28,30.38,30.23,25,6,25,0.00
2013-3-19,29.0,26.7,23.7,28.0,25.7,22.6,97,96,95,29.85,29.68,12,4,12,8.70
2013-3-20,28.4,22.3,18.6,25.0,20.4,16.8,96,92,83,29.73,29.66,30,10,30,0.00
2013-3-21,33.5,26.2,17.3,20.0,16.1,12.4,89,67,46,29.74,29.60,14,6,14,0.16
2013-3-22,32.7,22.1,10.8,24.7,16.7,7.1,92,80,59,29.74,29.62,17,7,17,0.04
2013-3-23,33.7,27.9,22.1,20.7,19.6,16.9,90,72,54,29.78,29.65,36,15,36,0.00
2013-3-24,35.8,29.8,23.3,24.5,21.9,19.0,84,72,60,29.83,29.75,16,6,16,0.01
2013-3-25,37.4,30.1,20.9,26.8,23.1,18.2,93,76,58,29.77,29.53,15,3,15,0.03
2013-3-26,39.2,32.1,26.6,28.3,24.1,16.7,93,74,43,29.79,29.57,21,6,21,0.01
2013-3-27,43.1,35.4,23.0,28.8,25.0,18.4,84,66,52,29.88,29.76,16,7,17,0.00
2013-3-28,42.0,35.5,30.9,33.4,30.8,28.1,96,84,66,30.03,29.88,12,6,13,0.01
2013-3-29,44.1,37.1,32.6,34.8,31.9,29.3,93,82,65,30.04,29.98,17,5,17,0.01
2013-3-30,48.4,36.8,25.9,30.8,24.3,15.2,95,65,31,30.07,30.00,15,4,15,0.02
2013-3-31,50.8,37.8,24.3,34.7,24.9,19.9,95,64,31,30.08,29.69,20,4,20,0.21
2013-4-1,43.7,33.9,25.7,39.7,28.7,12.7,98,83,46,29.74,29.49,31,10,31,0.31
2013-4-2,28.7,24.5,20.2,21.0,12.7,8.4,84,61,47,29.87,29.74,32,17,32,0.00
2013-4-3,35.3,27.0,21.0,15.9,11.2,6.3,72,53,32,30.15,29.86,34,20,34,0.00
2013-4-4,45.0,33.0,22.4,24.2,17.6,12.5,74,55,35,30.26,29.92,22,8,22,0.00
2013-4-5,47.2,36.9,27.5,29.2,22.3,17.3,90,57,37,29.93,29.69,22,8,22,0.00
2013-4-6,36.8,27.9,19.5,20.1,12.1,5.5,81,54,30,30.29,29.89,22,8,22,0.00
2013-4-7,53.7,38.2,25.4,37.9,22.5,12.3,71,55,30,30.26,29.86,16,5,16,0.00
2013-4-8,56.2,44.5,38.1,38.7,33.4,29.0,80,67,38,30.06,29.88,23,6,23,0.00
2013-4-9,55.7,47.7,39.5,47.8,40.1,33.7,98,76,54,29.98,29.79,30,9,30,0.10
2013-4-10,48.5,42.8,38.8,45.9,41.4,36.0,98,95,88,29.97,29.84,10,2,9,0.89
2013-4-11,40.7,32.7,28.5,39.9,29.6,25.0,97,88,74,30.13,29.84,12,3,12,0.06
2013-4-12,31.4,30.1,27.4,29.4,27.5,22.2,96,90,69,30.13,29.81,22,7,22,0.00
2013-4-13,45.2,36.1,29.9,37.9,32.8,28.9,98,89,65,29.90,29.78,18,4,18,0.64
2013-4-14,39.9,35.7,29.6,33.4,30.0,26.1,95,80,59,30.20,29.87,17,6,17,0.05
2013-4-15,57.9,42.3,26.2,36.4,30.6,24.7,96,67,42,30.33,30.20,16,3,16,0.01
2013-4-16,60.0,49.3,36.5,53.5,42.8,31.4,92,79,62,30.27,29.93,25,8,25,0.16
2013-4-17,54.2,45.6,34.3,48.2,33.5,27.8,86,64,38,30.32,30.01,20,8,20,0.00
2013-4-18,60.2,45.2,31.3,42.2,32.2,26.2,87,62,42,30.35,29.99,20,6,20,0.00
2013-4-19,69.7,59.8,46.0,58.9,53.6,42.2,93,80,63,29.99,29.43,39,11,39,0.54
2013-4-20,45.7,39.1,31.1,43.2,30.1,16.9,93,72,46,30.22,29.59,28,14,28,0.18
2013-4-21,42.5,33.0,26.0,21.3,17.1,10.9,72,54,28,30.65,30.20,17,7,17,0.00
2013-4-22,51.7,38.3,26.5,27.6,21.2,17.2,78,53,29,30.70,30.52,18,6,18,0.00
2013-4-23,40.1,35.1,29.3,36.6,30.6,24.9,94,83,78,30.52,30.14,15,7,15,0.00
2013-4-24,72.3,53.9,36.3,49.6,40.4,34.1,97,66,29,30.14,29.63,16,5,35,0.00
2013-4-25,60.2,43.1,32.8,50.1,30.0,22.0,83,62,33,30.25,29.62,29,10,29,0.00
2013-4-26,52.1,42.2,30.1,35.4,28.7,24.4,82,61,38,30.40,30.24,12,4,12,0.00
2013-4-27,59.1,45.2,30.1,36.8,29.4,23.2,95,60,27,30.40,30.27,12,2,12,0.00
2013-4-28,68.6,52.6,33.1,38.4,33.6,28.3,83,53,27,30.28,30.09,11,3,11,0.00
2013-4-29,61.7,52.9,42.7,41.9,38.7,35.9,79,59,44,30.17,30.10,15,3,15,0.00
2013-4-30,68.5,56.1,46.2,46.9,40.6,30.8,78,58,36,30.25,30.17,12,3,12,0.00
2013-5-1,74.1,58.2,38.2,38.1,32.8,23.3,84,44,16,30.39,30.25,12,3,12,0.00
2013-5-2,76.0,59.2,42.2,45.9,38.5,27.0,84,50,28,30.39,30.25,18,4,18,0.00
2013-5-3,67.0,53.7,40.6,42.7,36.2,24.9,76,53,34,30.42,30.29,14,5,14,0.00
2013-5-4,72.0,56.8,40.3,46.1,37.4,26.2,94,54,20,30.31,30.15,13,3,13,0.00
2013-5-5,71.7,56.5,35.9,38.4,31.8,26.3,74,42,21,30.21,30.11,12,3,12,0.00
2013-5-6,75.8,58.3,37.9,41.8,32.2,17.3,87,44,12,30.16,30.02,12,2,12,0.00
2013-5-7,78.8,62.0,43.4,51.9,40.2,32.2,93,51,20,30.09,29.98,10,3,10,0.00
2013-5-8,69.0,58.5,47.7,58.6,52.5,40.0,96,81,59,30.10,29.95,15,4,15,0.35
2013-5-9,65.1,57.7,48.8,57.4,53.3,47.7,98,86,64,29.95,29.81,15,2,15,0.06
2013-5-10,71.2,60.2,48.0,57.2,52.0,46.4,98,77,52,29.92,29.77,13,3,13,0.00
2013-5-11,67.4,60.8,53.7,60.3,56.0,51.5,93,85,63,29.78,29.57,20,4,20,0.38
2013-5-12,57.3,49.6,39.5,51.8,40.0,24.9,94,72,38,29.74,29.55,24,9,24,0.01
2013-5-13,43.6,38.9,34.7,31.8,29.3,27.1,85,68,59,30.02,29.74,24,13,24,0.00
2013-5-14,50.0,40.4,29.4,34.8,29.9,25.8,93,67,46,30.07,29.97,15,4,15,0.00
2013-5-15,58.8,45.1,29.3,50.7,37.4,27.3,96,78,36,30.02,29.60,15,3,15,0.13
2013-5-16,70.8,59.1,48.7,48.9,40.7,32.7,79,54,27,29.79,29.59,27,12,27,0.00
2013-5-17,62.0,50.3,41.3,41.7,38.6,35.1,85,66,37,30.19,29.79,22,6,22,0.00
2013-5-18,68.6,53.0,36.8,43.9,38.1,32.9,96,62,30,30.26,30.17,12,2,12,0.00
2013-5-19,65.4,52.7,42.5,53.2,48.0,40.3,97,85,58,30.24,30.09,12,2,12,0.18
2013-5-20,69.3,59.8,52.6,63.0,56.9,51.5,98,90,77,30.09,29.92,15,4,15,0.00
2013-5-21,80.2,65.1,54.0,66.5,59.6,52.3,99,84,57,29.93,29.75,15,4,15,1.38
2013-5-22,79.4,63.4,51.7,68.4,60.1,50.9,99,90,63,29.83,29.73,14,3,14,0.33
2013-5-23,74.4,67.4,59.5,65.4,62.1,58.5,98,84,65,29.75,29.65,18,4,18,0.02
2013-5-24,63.3,48.2,39.7,60.9,47.4,39.2,98,97,92,29.91,29.56,20,8,20,0.96
2013-5-25,40.3,38.4,33.8,39.8,37.7,32.8,98,97,96,29.90,29.82,22,8,22,1.20
2013-5-26,44.2,38.9,33.9,40.9,37.5,33.1,98,95,82,30.08,29.79,22,9,22,0.25
2013-5-27,64.1,47.9,31.8,45.9,37.5,31.0,99,72,35,30.16,30.07,17,4,17,0.00
2013-5-28,70.9,55.4,36.7,48.8,41.9,35.1,98,65,36,30.19,30.07,12,2,12,0.00
2013-5-29,65.1,58.7,53.9,63.4,56.4,46.7,98,92,67,30.08,29.91,12,2,12,0.15
2013-5-30,81.4,72.1,64.2,67.1,63.6,61.1,92,76,59,30.03,29.95,20,8,20,0.00
2013-5-31,85.6,73.1,58.6,67.5,62.2,56.9,97,72,42,30.03,29.87,20,4,20,0.00
2013-6-1,85.1,76.3,66.8,66.7,64.1,61.4,87,67,48,29.88,29.75,17,5,17,0.00
2013-6-2,84.3,72.0,62.2,68.8,64.9,60.4,96,79,55,29.75,29.58,25,6,25,0.75
2013-6-3,66.7,61.5,50.7,60.4,53.4,37.6,94,75,61,29.81,29.70,20,8,20,0.00
2013-6-4,63.8,53.1,44.7,48.1,42.7,36.8,88,69,51,30.07,29.80,18,7,18,0.00
2013-6-5,68.6,55.2,41.1,48.8,43.5,36.1,97,68,33,30.16,30.06,14,2,14,0.00
2013-6-6,69.7,57.6,46.8,53.0,47.1,41.7,94,69,48,30.12,30.01,12,3,12,0.15
2013-6-7,52.7,49.5,47.7,51.3,48.2,45.8,97,95,93,30.01,29.81,10,3,10,0.88
2013-6-8,62.8,54.6,48.9,59.8,53.4,48.1,98,96,87,29.99,29.70,13,3,13,0.50
2013-6-9,71.3,60.4,52.5,58.5,54.6,50.4,98,82,54,30.14,29.97,15,3,15,0.01
2013-6-10,68.0,57.9,47.8,58.7,53.9,46.7,98,88,56,30.15,29.89,9,2,9,0.20
2013-6-11,56.5,54.5,51.7,55.4,53.6,50.9,98,97,94,29.89,29.52,15,3,15,1.24
2013-6-12,61.7,54.8,50.2,55.1,52.0,48.5,98,91,73,29.81,29.53,21,8,21,0.20
2013-6-13,59.9,52.3,45.0,55.5,50.0,43.9,98,92,77,29.79,29.65,8,2,8,0.19
2013-6-14,69.7,59.1,49.3,58.3,52.4,46.1,99,80,53,29.83,29.65,15,4,15,0.00
2013-6-15,70.7,60.7,49.5,51.2,46.3,43.4,88,61,40,29.90,29.79,14,5,14,0.00
2013-6-16,70.3,58.9,48.0,59.0,52.5,44.7,94,81,58,29.89,29.64,24,5,24,0.08
2013-6-17,71.7,63.2,57.7,61.4,58.1,54.3,93,84,65,29.85,29.73,18,7,18,0.27
2013-6-18,58.6,54.9,48.2,56.6,52.9,46.5,97,93,87,29.94,29.83,12,1,12,0.13
2013-6-19,65.0,54.1,44.1,49.5,44.7,38.1,98,74,38,30.15,29.92,13,3,13,0.01
2013-6-20,72.5,58.4,41.0,52.6,45.9,39.3,98,68,31,30.22,30.14,15,3,15,0.00
2013-6-21,77.4,65.2,51.5,58.4,52.6,49.3,95,67,41,30.21,30.14,12,3,12,0.00
2013-6-22,77.7,67.2,54.1,65.9,59.9,51.6,96,79,59,30.17,30.03,14,3,14,0.03
2013-6-23,85.1,71.8,62.8,71.3,66.2,61.4,97,83,60,30.05,29.87,22,5,22,0.78
2013-6-24,81.4,72.3,66.5,72.2,66.7,63.9,95,83,70,29.94,29.85,17,6,17,0.16
2013-6-25,82.5,71.2,62.9,70.3,65.5,60.6,95,83,60,29.89,29.68,17,5,17,0.28
2013-6-26,71.3,66.8,61.9,68.8,64.9,60.7,98,94,87,29.76,29.67,9,1,9,0.43
2013-6-27,79.6,69.0,59.3,71.5,65.4,58.4,99,89,71,29.76,29.62,9,1,9,0.09
2013-6-28,75.2,66.4,57.8,66.9,62.7,57.0,98,89,70,29.62,29.38,12,4,12,1.05
2013-6-29,78.3,68.3,61.1,65.8,63.1,60.0,98,85,57,29.62,29.42,20,3,20,0.09
2013-6-30,80.1,70.3,61.2,67.8,64.1,59.9,97,82,62,29.85,29.61,13,3,13,0.11
2013-7-1,75.4,68.1,62.2,70.0,65.7,60.8,98,92,79,29.98,29.85,4,1,4,1.43
2013-7-2,79.9,70.0,62.9,73.3,67.8,62.2,99,93,75,30.08,29.95,12,2,12,0.75
2013-7-3,82.3,72.9,65.0,71.5,68.1,64.1,99,86,65,30.12,30.05,14,4,14,0.02
2013-7-4,84.9,76.1,69.1,73.7,70.2,67.2,96,83,62,30.12,30.00,16,4,16,0.06
2013-7-5,85.7,76.1,69.5,73.6,70.5,68.3,97,84,59,30.07,29.96,16,5,16,0.22
2013-7-6,80.3,73.2,66.6,70.4,67.4,64.0,98,83,65,30.02,29.94,17,5,17,0.13
2013-7-7,83.2,71.9,63.3,73.8,66.7,59.4,97,84,64,29.97,29.83,14,2,18,0.53
2013-7-8,75.8,70.5,66.8,70.6,67.7,65.4,98,91,79,29.98,29.85,15,2,15,0.03
2013-7-9,80.7,70.8,64.2,73.1,67.7,63.3,98,91,71,30.01,29.88,6,1,6,0.34
2013-7-10,79.8,71.4,66.3,73.3,68.6,65.4,98,91,72,29.94,29.70,13,2,13,0.17
2013-7-11,76.0,70.1,60.0,69.4,64.4,57.7,94,83,64,29.93,29.66,20,5,20,0.01
2013-7-12,80.3,67.2,55.4,65.9,59.9,54.3,98,79,50,30.14,29.93,5,1,5,0.00
2013-7-13,75.2,66.6,56.0,67.8,61.4,54.7,98,84,65,30.24,30.14,10,1,10,0.00
2013-7-14,80.4,71.9,62.5,71.6,67.0,61.3,98,85,66,30.26,30.17,10,2,10,0.00
2013-7-15,86.0,74.7,64.1,71.6,66.8,62.9,98,78,52,30.17,30.06,13,3,13,0.00
2013-7-16,85.1,74.0,63.6,70.0,65.6,62.0,97,77,52,30.15,30.09,15,4,15,0.00
2013-7-17,87.4,76.4,63.2,72.8,68.2,61.8,98,78,57,30.13,29.92,15,5,15,0.01
2013-7-18,86.8,77.4,68.8,73.7,70.8,67.5,96,81,62,29.96,29.84,17,4,14,0.03
2013-7-19,87.8,79.3,68.4,75.1,70.8,66.0,97,76,58,29.86,29.62,37,10,37,0.66
2013-7-20,79.7,71.2,65.6,69.6,65.3,61.9,92,82,67,29.76,29.60,23,8,23,0.30
2013-7-21,75.0,65.9,58.2,64.2,60.6,57.1,98,84,62,29.94,29.76,8,2,8,0.00
2013-7-22,78.0,66.9,57.1,71.4,63.4,56.0,97,89,74,29.96,29.79,9,2,9,0.13
2013-7-23,74.3,67.1,63.1,68.8,64.9,62.1,98,93,79,29.79,29.51,8,2,8,1.50
2013-7-24,69.9,63.0,49.7,65.3,58.7,46.1,97,86,68,29.96,29.53,20,5,20,0.02
2013-7-25,70.8,57.6,43.4,59.0,50.8,42.3,97,80,57,30.07,29.96,8,2,8,0.00
2013-7-26,66.2,59.4,54.0,60.8,56.5,52.6,97,90,81,30.05,29.96,9,2,9,0.00
2013-7-27,79.5,65.2,50.8,65.4,57.5,49.7,99,79,46,30.00,29.91,12,2,12,0.01
2013-7-28,74.0,65.0,56.5,67.1,62.0,55.4,98,90,76,29.93,29.87,10,2,10,0.06
2013-7-29,75.7,67.7,57.0,64.5,60.0,52.8,97,78,55,30.02,29.90,18,4,18,0.01
2013-7-30,71.7,63.0,52.9,58.6,55.3,51.0,94,77,57,30.08,30.01,15,4,15,0.00
2013-7-31,76.3,64.6,52.8,61.7,56.7,51.1,98,77,49,30.09,29.97,12,2,12,0.00
2013-8-1,75.3,61.9,52.8,64.2,58.6,51.1,98,90,63,29.98,29.78,18,2,18,0.39
2013-8-2,74.2,66.2,60.3,61.8,58.7,55.5,97,78,55,29.79,29.73,16,6,16,0.00
2013-8-3,71.9,63.3,56.5,60.5,55.6,52.6,96,77,53,29.80,29.73,24,6,24,0.18
2013-8-4,67.4,60.3,53.5,58.1,54.2,50.5,91,81,62,29.88,29.76,21,5,21,0.09
2013-8-5,67.9,57.3,48.1,52.2,46.9,40.4,93,71,43,30.02,29.88,20,6,20,0.00
2013-8-6,73.0,59.4,45.7,58.6,50.8,44.1,98,76,45,30.08,30.02,8,1,8,0.00
2013-8-7,75.6,64.3,52.9,61.2,57.0,50.9,96,79,54,30.09,29.99,14,2,14,0.00
2013-8-8,80.8,70.8,62.1,68.4,65.0,59.1,95,83,63,29.99,29.89,13,3,13,0.00
2013-8-9,74.2,70.3,67.8,70.3,67.9,65.7,97,92,86,29.90,29.69,9,2,9,0.20
2013-8-10,72.1,65.5,52.8,67.3,54.8,43.6,95,71,41,29.97,29.74,21,9,21,0.07
2013-8-11,71.6,60.5,46.5,56.9,51.7,44.8,97,74,50,30.05,29.95,13,4,13,0.00
2013-8-12,74.3,63.8,52.2,60.7,55.5,49.3,95,76,55,29.98,29.85,12,3,12,0.00
2013-8-13,64.5,60.7,51.6,62.8,59.4,48.5,98,95,89,29.86,29.64,6,0,6,0.57
2013-8-14,64.7,56.1,49.9,60.8,52.2,47.8,96,87,66,29.93,29.65,20,6,20,0.12
2013-8-15,67.3,56.1,43.3,54.3,49.5,42.2,98,80,58,30.07,29.93,18,4,18,0.00
2013-8-16,71.7,60.8,48.2,57.6,52.4,46.2,97,75,56,30.15,30.05,14,3,14,0.00
2013-8-17,75.8,61.7,49.4,60.4,54.2,47.9,98,78,52,30.24,30.15,12,2,12,0.00
2013-8-18,72.4,62.1,52.7,62.6,56.3,51.6,98,83,59,30.23,30.04,10,1,10,0.00
2013-8-19,75.9,64.3,53.3,63.4,58.1,51.8,98,82,60,30.04,29.92,15,3,15,0.00
2013-8-20,78.0,66.3,53.6,64.7,59.1,52.2,98,79,56,30.06,29.96,13,2,13,0.00
2013-8-21,80.3,68.6,57.2,65.8,61.1,55.8,97,78,55,30.10,29.97,12,3,12,0.00
2013-8-22,81.5,70.9,61.3,65.5,62.7,57.8,95,77,48,29.97,29.75,17,4,17,0.46
2013-8-23,67.7,61.4,48.4,62.2,55.6,46.1,95,82,53,30.13,29.80,17,5,17,0.00
2013-8-24,73.8,58.2,44.7,57.5,49.7,43.6,98,77,44,30.31,30.13,9,2,9,0.01
2013-8-25,74.1,60.9,47.1,59.4,53.1,46.0,98,78,49,30.33,30.11,16,3,16,0.01
2013-8-26,74.1,66.6,60.8,66.7,61.9,56.6,95,85,75,30.11,29.83,20,7,20,0.12
2013-8-27,77.1,68.6,62.9,69.0,65.5,61.4,98,90,71,29.86,29.79,12,2,12,0.01
2013-8-28,81.5,69.3,59.6,69.9,64.3,58.7,99,85,61,29.91,29.79,12,1,12,0.22
2013-8-29,76.2,65.0,56.3,66.7,61.4,55.1,98,89,68,30.00,29.88,8,1,8,0.01
2013-8-30,79.2,68.8,59.4,67.7,63.4,58.3,98,84,62,29.95,29.73,14,3,14,0.00
2013-8-31,76.0,70.0,64.0,71.9,66.9,62.4,97,90,80,29.74,29.68,14,3,14,0.12
2013-9-1,78.9,71.1,66.1,70.5,67.5,64.7,97,89,73,29.80,29.72,8,2,8,0.00
2013-9-2,79.8,69.8,62.1,70.5,66.7,60.9,99,91,67,29.77,29.61,26,2,26,0.64
2013-9-3,69.3,62.9,58.3,61.9,58.8,55.0,99,87,69,29.77,29.64,20,5,20,0.01
2013-9-4,71.7,63.7,57.5,59.2,55.4,51.3,91,75,59,29.85,29.77,20,8,20,0.00
2013-9-5,63.8,55.3,42.3,56.6,47.7,39.6,96,77,50,30.12,29.79,17,4,17,0.20
2013-9-6,62.1,49.6,36.0,47.0,40.6,34.7,97,74,43,30.23,30.06,13,3,13,0.00
2013-9-7,68.8,56.6,46.2,52.8,47.1,43.3,94,72,40,30.06,29.81,18,5,18,0.01
2013-9-8,60.2,54.9,41.9,56.3,46.7,38.8,93,75,59,30.06,29.73,22,7,22,0.01
2013-9-9,65.7,50.6,36.6,49.5,42.4,35.3,98,77,42,30.18,30.05,10,2,10,0.00
2013-9-10,73.4,61.2,48.5,68.6,59.1,46.7,98,93,83,30.07,29.95,17,2,17,0.21
2013-9-11,87.1,78.7,64.4,74.4,71.2,63.5,99,79,59,30.00,29.85,21,7,21,0.00
2013-9-12,78.9,67.4,63.0,70.0,64.8,62.1,97,92,68,29.82,29.57,44,1,44,0.60
2013-9-13,63.0,56.2,48.9,62.1,55.4,47.8,98,97,96,29.79,29.53,17,6,17,0.46
2013-9-14,48.9,48.4,47.8,48.1,47.6,47.0,97,97,97,29.81,29.78,15,7,15,0.00
2013-9-15,59.1,56.5,54.7,51.3,50.3,48.3,84,80,74,30.03,29.99,14,3,14,0.01
2013-9-16,55.5,48.2,35.7,50.9,43.9,33.0,95,86,68,30.26,29.97,18,5,18,0.10
2013-9-17,58.9,44.9,32.9,46.3,38.7,31.5,97,81,55,30.43,30.26,10,2,10,0.00
2013-9-18,67.7,50.2,37.3,50.6,42.5,36.3,99,78,42,30.32,30.12,12,2,12,0.01
2013-9-19,73.1,55.5,42.7,56.1,48.2,41.6,99,80,42,30.13,30.01,12,1,12,0.00
2013-9-20,79.2,60.0,46.5,59.2,52.0,45.4,99,78,41,30.06,29.91,8,1,8,0.01
2013-9-21,73.1,59.9,48.8,60.7,54.2,48.0,98,83,45,29.92,29.57,18,4,18,0.11
2013-9-22,61.6,53.7,44.8,60.2,49.8,41.4,95,87,71,29.83,29.51,20,7,20,0.52
2013-9-23,52.2,44.1,38.8,42.9,38.8,36.3,91,82,67,30.01,29.83,17,7,17,0.00
2013-9-24,58.4,48.2,41.5,45.4,40.9,37.3,87,76,59,30.00,29.86,18,7,18,0.00
2013-9-25,62.6,50.3,38.3,50.8,44.9,36.9,97,83,63,29.96,29.88,17,4,17,0.00
2013-9-26,62.0,49.6,39.0,50.0,44.6,37.4,97,84,60,30.13,29.96,13,2,13,0.00
2013-9-27,57.2,48.3,41.1,51.0,45.7,40.0,98,91,76,30.28,30.12,6,0,6,0.00
2013-9-28,72.7,54.7,41.9,57.6,48.4,41.1,99,82,47,30.33,30.22,1,0,0,0.01
2013-9-29,71.9,54.6,43.9,56.3,48.4,42.8,99,82,50,30.22,30.03,0,0,0,0.01
2013-9-30,71.8,54.4,42.0,54.3,47.6,40.8,99,81,48,30.06,29.93,8,1,8,0.00
2013-10-1,71.2,56.7,43.5,57.9,51.1,42.4,99,83,59,29.96,29.85,14,2,14,0.01
2013-10-2,70.6,61.9,49.7,61.3,55.2,47.6,96,79,64,29.93,29.81,20,8,20,0.00
2013-10-3,69.3,57.4,45.2,50.4,46.6,42.2,94,69,43,30.04,29.93,14,2,14,0.00
2013-10-4,63.4,54.5,44.6,53.7,50.1,43.0,97,86,66,30.05,29.99,6,0,6,0.00
2013-10-5,61.3,56.0,53.6,55.2,53.2,51.2,97,91,77,30.08,30.01,7,1,7,0.01
2013-10-6,54.2,50.6,47.7,53.4,49.5,46.8,98,96,89,30.12,30.04,12,3,12,0.00
2013-10-7,67.8,56.8,49.8,63.9,54.5,46.4,98,92,82,30.04,29.60,23,8,23,0.53
2013-10-8,58.0,48.7,37.1,46.7,40.8,35.3,94,76,50,30.35,29.85,20,6,20,0.00
2013-10-9,62.7,46.1,35.0,42.1,37.5,33.7,97,76,38,30.45,30.33,12,2,12,0.01
2013-10-10,64.3,48.2,35.3,45.0,39.0,33.2,94,74,37,30.33,30.16,4,1,4,0.00
2013-10-11,69.5,54.3,44.3,48.2,41.8,34.1,87,65,28,30.16,30.08,9,1,9,0.00
2013-10-12,61.0,51.4,42.9,53.3,47.1,39.5,96,86,73,30.33,30.13,10,4,10,0.00
2013-10-13,63.8,52.0,42.0,49.5,45.3,37.3,95,79,54,30.38,30.29,13,3,13,0.00
2013-10-14,61.6,50.5,38.4,52.8,47.0,37.4,98,88,71,30.31,30.20,12,2,12,0.00
2013-10-15,59.1,55.4,51.6,54.1,52.2,49.6,96,89,82,30.23,30.08,7,2,7,0.00
2013-10-16,63.7,53.9,47.6,50.8,48.8,45.4,97,84,57,30.08,29.80,12,2,12,0.01
2013-10-17,62.2,55.0,47.8,54.5,49.0,44.1,97,81,58,29.80,29.61,20,5,20,0.13
2013-10-18,53.5,50.9,47.2,52.5,45.1,36.5,98,81,58,29.86,29.53,26,12,26,0.42
2013-10-19,60.0,50.9,41.0,45.5,41.7,37.6,93,72,54,29.89,29.63,20,6,20,0.45
2013-10-20,50.3,46.3,42.2,46.1,38.6,34.0,91,75,60,29.96,29.60,25,12,25,0.04
2013-10-21,59.1,47.5,33.7,42.8,37.7,32.0,97,71,48,30.05,29.87,17,4,17,0.00
2013-10-22,50.7,45.7,39.5,47.2,39.2,30.5,92,79,61,29.87,29.67,18,6,18,0.13
2013-10-23,46.5,39.5,32.1,35.9,32.0,28.9,92,75,54,29.73,29.57,15,4,15,0.23
2013-10-24,39.7,36.2,31.1,34.2,31.2,28.1,93,82,70,29.85,29.63,21,10,21,0.02
2013-10-25,39.6,36.3,33.5,31.7,28.6,25.6,86,74,59,30.08,29.85,21,10,21,0.00
2013-10-26,43.5,39.0,35.3,33.6,30.5,25.8,89,72,51,30.08,29.78,25,6,25,0.00
2013-10-27,43.7,40.2,36.5,35.3,31.2,26.6,83,71,55,29.99,29.73,25,11,25,0.00
2013-10-28,46.3,37.4,25.3,36.5,29.9,19.8,83,74,62,30.32,29.98,23,9,23,0.01
2013-10-29,40.4,28.7,19.2,25.5,20.1,14.9,94,72,40,30.43,30.32,12,2,12,0.00
2013-10-30,43.0,34.3,26.2,36.7,29.7,21.1,95,84,60,30.33,30.18,16,3,16,0.01
2013-10-31,58.0,44.0,30.6,56.0,42.5,29.2,98,94,89,30.21,29.64,17,3,17,0.37
2013-11-1,62.6,58.2,49.7,59.6,51.4,40.6,93,79,50,29.64,29.28,50,14,50,1.10
2013-11-2,54.8,46.1,34.3,43.4,39.9,33.3,96,80,61,29.76,29.55,18,7,18,1.13
2013-11-3,34.3,29.0,23.4,33.3,21.6,15.7,96,75,57,30.44,29.76,15,8,15,1.13
2013-11-4,36.0,25.7,17.2,18.8,16.9,13.7,89,71,46,30.66,30.44,10,2,10,0.00
2013-11-5,46.8,33.4,22.8,32.1,24.8,16.3,89,72,52,30.67,30.45,9,2,9,0.00
2013-11-6,55.8,45.0,32.8,45.9,38.7,29.8,95,79,60,30.45,29.88,15,4,15,0.00
2013-11-7,55.5,46.0,31.7,50.9,41.2,24.4,95,83,68,29.89,29.65,25,10,25,0.35
2013-11-8,38.9,32.5,28.8,30.9,24.2,21.0,85,72,58,30.06,29.77,24,12,24,0.00
2013-11-9,36.4,31.9,27.1,29.9,23.7,19.6,93,72,60,30.16,29.93,17,6,17,0.00
2013-11-10,43.8,36.1,28.8,38.5,32.7,27.3,97,88,77,29.93,29.69,29,10,29,0.16
2013-11-11,40.2,36.0,31.4,33.5,27.9,25.1,85,73,59,30.04,29.82,38,12,38,0.00
2013-11-12,37.6,24.8,21.0,33.6,19.8,14.7,94,82,69,30.20,29.83,21,10,21,0.02
2013-11-13,30.7,22.6,16.7,21.2,14.6,8.1,84,72,45,30.30,30.04,25,10,25,0.00
2013-11-14,42.6,35.5,29.1,26.5,20.7,14.6,70,56,32,30.08,30.02,23,12,23,0.00
2013-11-15,51.5,41.3,33.5,26.5,17.8,12.7,69,41,22,30.15,30.04,21,6,21,0.00
2013-11-16,53.5,42.6,32.9,31.9,27.5,21.3,84,57,39,30.25,30.13,12,3,12,0.00
2013-11-17,53.1,44.1,32.0,51.7,41.4,28.2,97,90,84,30.23,29.67,23,5,23,0.03
2013-11-18,55.5,48.8,37.7,54.1,42.1,28.3,95,78,63,29.67,29.40,29,11,29,0.56
2013-11-19,37.6,29.0,22.9,28.8,20.6,13.8,92,71,64,30.32,29.59,32,13,32,0.00
2013-11-20,31.1,23.1,17.4,19.5,16.5,14.0,88,76,55,30.62,30.32,13,4,18,0.00
2013-11-21,43.2,28.6,16.4,31.6,16.5,4.1,90,65,21,30.62,30.33,13,1,13,0.00
2013-11-22,43.2,37.9,33.2,41.7,36.0,29.3,98,93,78,30.33,29.78,22,3,22,0.00
2013-11-23,42.7,29.3,19.8,39.4,22.0,10.9,88,75,56,29.91,29.71,30,14,30,0.00
2013-11-24,19.8,13.6,9.4,13.4,3.6,-3.4,79,64,48,30.23,29.77,23,14,32,0.00
2013-11-25,28.6,15.8,7.3,16.0,5.1,-3.3,80,62,46,30.37,30.19,20,6,20,0.00
2013-11-26,32.6,28.7,24.3,29.5,23.8,9.8,96,83,43,30.26,29.96,15,5,15,0.00
2013-11-27,41.7,32.9,27.4,40.6,32.0,26.3,98,97,96,29.96,29.31,23,8,23,0.00
2013-11-28,27.4,18.3,12.3,26.4,12.8,6.0,96,79,61,30.39,29.46,31,13,31,0.00
2013-11-29,22.1,13.0,4.2,11.0,7.0,1.3,89,77,55,30.74,30.38,13,3,13,0.00
2013-11-30,24.4,14.7,1.5,15.4,6.7,-1.2,92,72,51,30.78,30.37,10,2,10,0.00
2013-12-1,36.7,28.9,23.0,29.7,25.1,15.3,93,86,72,30.37,30.00,8,1,8,0.00
2013-12-2,37.1,32.0,27.2,34.5,30.5,25.4,96,94,89,30.00,29.87,4,0,4,0.00
2013-12-3,39.0,32.0,24.9,36.2,30.0,23.8,98,92,83,29.94,29.86,9,2,9,0.01
2013-12-4,36.2,29.5,24.5,28.3,25.6,22.3,94,85,69,30.13,29.94,12,3,12,0.00
2013-12-5,52.5,39.5,26.9,52.0,37.9,25.3,99,94,90,30.13,29.83,21,4,21,0.00
2013-12-6,52.7,37.2,28.5,52.2,34.2,26.7,98,89,77,30.10,29.83,21,8,21,0.01
2013-12-7,28.5,25.8,21.5,27.0,20.3,12.2,94,80,64,30.41,30.05,20,9,20,0.00
2013-12-8,23.0,20.8,16.1,15.4,13.6,11.7,87,73,65,30.55,30.41,20,3,20,0.00
2013-12-9,36.7,27.6,19.1,35.1,24.6,15.2,96,89,76,30.42,29.86,22,9,22,0.01
2013-12-10,32.7,25.9,17.8,28.0,17.5,7.9,86,71,44,29.91,29.72,24,12,24,0.00
2013-12-11,23.9,19.5,10.7,17.1,11.8,4.3,87,72,50,30.14,29.91,30,13,30,0.00
2013-12-12,16.5,12.3,7.5,11.7,2.3,-4.1,82,64,45,30.24,29.97,21,10,21,0.00
2013-12-13,17.0,11.8,-0.8,12.8,6.3,-5.3,88,78,68,30.39,29.89,24,9,24,0.00
2013-12-14,10.8,3.1,-2.4,8.4,-2.3,-6.7,90,78,55,30.58,30.16,14,5,14,0.00
2013-12-15,22.2,17.7,10.2,21.0,16.1,7.9,95,93,90,30.16,29.53,28,10,28,0.00
2013-12-16,19.2,12.7,1.4,17.8,10.8,-1.2,94,92,89,30.17,29.67,27,13,27,0.00
2013-12-17,13.0,3.1,-9.9,11.1,0.6,-13.2,92,89,84,30.22,30.03,12,2,12,0.00
2013-12-18,24.0,18.8,10.4,22.8,17.3,8.3,95,94,91,30.03,29.92,21,6,21,0.00
2013-12-19,34.7,28.8,23.4,30.7,26.4,22.2,96,91,83,30.04,29.91,29,14,29,0.00
2013-12-20,47.3,39.2,32.7,42.1,35.4,30.4,93,86,67,30.05,29.83,18,5,18,0.01
2013-12-21,53.5,47.5,33.7,51.2,45.3,32.5,97,92,85,29.83,29.75,21,6,21,0.00
2013-12-22,58.5,41.5,27.9,55.1,39.2,27.2,99,92,77,29.89,29.60,13,4,13,0.00
2013-12-23,51.8,39.7,27.8,48.7,38.3,23.6,98,95,83,30.08,29.87,16,5,16,0.00
2013-12-24,27.8,19.4,9.9,23.6,15.4,7.6,93,85,77,30.23,30.06,16,7,16,0.00
2013-12-25,15.5,8.9,1.6,8.3,3.6,-1.4,90,79,67,30.50,30.23,18,5,18,0.00
2013-12-26,26.7,21.2,15.5,24.4,17.3,6.5,92,85,67,30.40,30.07,20,6,20,0.00
2013-12-27,26.1,24.0,20.6,22.2,19.6,16.1,89,83,72,30.20,30.13,21,11,21,0.00
2013-12-28,37.7,33.6,25.0,31.3,27.5,20.0,84,78,68,30.13,29.93,34,14,34,0.01
2013-12-29,38.4,34.9,31.0,33.1,30.9,28.1,96,86,75,29.96,29.54,12,2,30,0.00
2013-12-30,34.6,18.0,3.2,33.4,14.4,-0.3,97,85,73,30.11,29.54,26,5,30,0.00
2013-12-31,17.0,8.6,0.0,13.0,4.7,-2.9,88,84,74,30.14,29.99,26,5,26,0.00
2014-1-1,14.4,10.6,4.4,8.0,5.1,0.6,84,78,69,30.36,30.14,18,7,18,0.00
2014-1-2,6.0,0.9,-9.5,2.7,-2.4,-13.6,89,86,81,30.35,29.92,12,3,12,0.00